Weather History for Camarillo, CA

Change the Weather History Date:

Wednesday, August 20, 2014

  Actual Average Record
Temperature  
Mean Temperature 73 °F 68 °F  
Max Temperature 80 °F 77 °F 83 °F (1986)
Min Temperature 66 °F 59 °F 50 °F (1953)
Degree Days  
Heating Degree Days 0 0  
Month to date heating degree days 0 0  
Since 1 June heating degree days 12 53  
Since 1 July heating degree days 0 10  
Cooling Degree Days 8 3  
Month to date cooling degree days 129 60  
Year to date cooling degree days 547 185  
Since 1 June cooling degree days 399 154  
Growing Degree Days 24 (Base 50)    
Moisture  
Dew Point 59 °F    
Average Humidity 62    
Maximum Humidity 76    
Minimum Humidity 48    
Precipitation  
Precipitation 0.00 in 0.00 in 0.09 in (1983)
Month to date precipitation 0.03 0.02  
Year to date precipitation 4.22 11.02  
Since 1 July precipitation 0.03 0.04  
Sea Level Pressure  
Sea Level Pressure 29.93 in    
Wind  
Wind Speed 4 mph (WSW)    
Max Wind Speed 14 mph    
Max Gust Speed 21 mph    
Visibility 10 miles    
Events      
T = Trace of Precipitation, MM = Missing Value Source: NWS Daily Summary

Daily Weather History Graph

Daily Weather History Graph

Search for Another Location

Airport:

Trip Planner

Search our weather history database for the weather conditions in past years. The results will help you decide how hot, cold, wet, or windy it might be!

Date:

Astronomy

Aug. 20, 2014 Rise Set
Actual Time 6:21 AM PDT 7:37 PM PDT
Civil Twilight 5:55 AM PDT 8:03 PM PDT
Nautical Twilight 5:23 AM PDT 8:34 PM PDT
Astronomical Twilight 4:51 AM PDT 9:07 PM PDT
Moon 2:09 AM PDT 4:21 PM PDT
Length of Visible Light 14h 08m
Length of Day
13h 16m
Waning Crescent, 20% of the Moon is Illuminated
Aug 20
Waning Crescent
Aug 25
New
Sep 2
First Quarter
Sep 8
Full
Sep 15
Last Quarter

Hourly Weather History & Observations

Time (PDT) Temp. Dew Point Humidity Pressure Visibility Wind Dir Wind Speed Gust Speed Precip Events Conditions
12:55 AM 69.1 °F 60.1 °F 73% 29.90 in 10.0 mi WNW 5.8 mph - N/A   Overcast
1:55 AM 68.0 °F 60.1 °F 76% 29.91 in 10.0 mi WSW 3.5 mph - N/A   Overcast
2:55 AM 68.0 °F 60.1 °F 76% 29.91 in 10.0 mi Calm Calm - N/A   Overcast
3:55 AM 68.0 °F 60.1 °F 76% 29.91 in 10.0 mi Calm Calm - N/A   Overcast
4:55 AM 69.1 °F 60.1 °F 73% 29.91 in 10.0 mi Calm Calm - N/A   Overcast
5:06 AM 68.0 °F 60.8 °F 78% 29.89 in 10.0 mi Calm Calm - N/A   Overcast
5:55 AM 69.1 °F 60.1 °F 73% 29.93 in 10.0 mi Calm Calm - N/A   Overcast
6:55 AM 69.1 °F 60.1 °F 73% 29.94 in 9.0 mi Calm Calm - N/A   Overcast
7:55 AM 70.0 °F 60.1 °F 71% 29.95 in 10.0 mi Calm Calm - N/A   Overcast
8:55 AM 73.0 °F 60.1 °F 64% 29.96 in 10.0 mi Calm Calm - N/A   Partly Cloudy
9:55 AM 75.9 °F 57.9 °F 54% 29.96 in 10.0 mi Calm Calm - N/A   Clear
10:55 AM 77.0 °F 59.0 °F 54% 29.96 in 10.0 mi SSW 8.1 mph - N/A   Clear
11:55 AM 78.1 °F 59.0 °F 52% 29.96 in 10.0 mi SW 8.1 mph 16.1 mph N/A   Clear
12:55 PM 79.0 °F 57.9 °F 48% 29.95 in 10.0 mi SW 10.4 mph - N/A   Clear
1:55 PM 79.0 °F 57.9 °F 48% 29.94 in 10.0 mi SSW 10.4 mph - N/A   Clear
2:55 PM 78.1 °F 57.9 °F 50% 29.92 in 10.0 mi SW 8.1 mph 17.3 mph N/A   Clear
3:55 PM 78.1 °F 57.9 °F 50% 29.91 in 10.0 mi West 10.4 mph - N/A   Clear
4:55 PM 75.9 °F 57.9 °F 54% 29.91 in 10.0 mi West 10.4 mph - N/A   Clear
5:55 PM 73.9 °F 57.0 °F 55% 29.92 in 10.0 mi West 11.5 mph - N/A   Clear
6:55 PM 72.0 °F 55.9 °F 57% 29.91 in 10.0 mi West 10.4 mph - N/A   Clear
7:55 PM 69.1 °F 57.0 °F 65% 29.92 in 10.0 mi WSW 4.6 mph - N/A   Clear
8:55 PM 68.0 °F 57.0 °F 68% 29.94 in 10.0 mi SW 3.5 mph - N/A   Clear
9:55 PM 68.0 °F 57.0 °F 68% 29.94 in 10.0 mi Calm Calm - N/A   Clear
10:55 PM 68.0 °F 55.9 °F 65% 29.94 in 10.0 mi Calm Calm - N/A   Clear
11:55 PM 66.9 °F 55.9 °F 68% 29.94 in 10.0 mi Calm Calm - N/A   Clear